Location: L�gaud
(45.7115°N, 1.7775°E)
Time: 06:31:42
(UTC+00:00)

Cosmos 2322 - Pass Details

Date: 03 March 2021
Orbit: 841 x 854 km, 71.0° (Epoch: 10 April)

Event Time Altitude Azimuth Distance (km) Brightness Sun altitude
Rises 19:42:42 0° 201° (SSW) 3,409 7.0 -21.6°
Reaches altitude 10° 19:45:08 10° 201° (SSW) 2,477 6.2 -22.1°
Maximum altitude 19:50:51 82° 114° (ESE) 867 3.6 -23.0°
Drops below altitude 10° 19:56:35 10° 28° (NNE) 2,491 6.0 -24.0°
Sets 19:59:02 0° 27° (NNE) 3,430 6.8 -24.4°
